| time (UTC) | temp C | wind direction | speed KPH | gust KPH | rain 1hr cm | rain 24hr cm | rain mn cm | humidity % | barometer mb |
| 20260504160208 | 20 | 184 | 4.8 | 17.7 | 0.00 | 0.00 | 0.00 | 42 | 1012.3 |
| 20260504150904 | 18 | 203 | 6.4 | 20.9 | 0.00 | 0.00 | 0.00 | 38 | 1012.8 |
| 20260504150400 | 18 | 192 | 9.7 | 20.9 | 0.00 | 0.00 | 0.00 | 38 | 1012.9 |
| 20260504141314 | 16 | 190 | 4.8 | 14.5 | 0.00 | 0.00 | 0.00 | 49 | 1013.1 |
| 20260504140809 | 16 | 223 | 6.4 | 14.5 | 0.00 | 0.00 | 0.00 | 50 | 1013.3 |
| 20260504140303 | 16 | 263 | 4.8 | 12.9 | 0.00 | 0.00 | 0.00 | 50 | 1013.3 |
| 20260504140104 | 15 | 178 | 3.2 | 14.5 | 0.00 | 0.00 | 0.00 | 51 | 1013.5 |
| 20260504130717 | 13 | 194 | 4.8 | 12.9 | 0.00 | 0.00 | 0.00 | 58 | 1013.8 |
| 20260504130214 | 13 | 203 | 6.4 | 12.9 | 0.00 | 0.00 | 0.00 | 59 | 1013.9 |
| 20260504120109 | 6 | 213 | 0.0 | 1.6 | 0.00 | 0.00 | 0.00 | 77 | 1014.1 |
| 20260504110457 | 2 | 213 | 0.0 | 0.0 | 0.00 | 0.00 | 0.00 | 87 | 1014.3 |
| 20260504100614 | 1 | 213 | 0.0 | 0.0 | 0.00 | 0.00 | 0.00 | 87 | 1014.1 |
| 20260504081629 | 2 | 213 | 0.0 | 0.0 | 0.00 | 0.00 | 0.00 | 83 | 1014.1 |
| 20260504081545 | 2 | 0 | 0.0 | 0.0 | 0.00 | 0.00 | 0.00 | 82 | 1014.3 |
| 20260504081107 | 2 | 213 | 0.0 | 0.0 | 0.00 | 0.00 | 0.00 | 82 | 1014.1 |
| 20260504080602 | 2 | 213 | 0.0 | 0.0 | 0.00 | 0.00 | 0.00 | 82 | 1014.1 |
| 20260504050211 | 4 | 213 | 0.0 | 0.0 | 0.00 | 0.00 | 0.00 | 73 | 1014.1 |
| 20260504045711 | 4 | 213 | 0.0 | 0.0 | 0.00 | 0.00 | 0.00 | 73 | 1014.2 |
| 20260504045421 | 4 | 213 | 0.0 | 0.0 | 0.00 | 0.00 | 0.00 | 73 | 1014.0 |
| 20260504044645 | 5 | 213 | 0.0 | 0.0 | 0.00 | 0.00 | 0.00 | 71 | 1013.9 |
| 20260504044554 | 4 | 0 | 0.0 | 0.0 | 0.00 | 0.00 | 0.00 | 70 | 1014.2 |
| 20260504044139 | 5 | 213 | 0.0 | 0.0 | 0.00 | 0.00 | 0.00 | 71 | 1013.9 |
| 20260504043620 | 5 | 213 | 0.0 | 0.0 | 0.00 | 0.00 | 0.00 | 72 | 1014.0 |
| 20260504043113 | 5 | 213 | 0.0 | 0.0 | 0.00 | 0.00 | 0.00 | 72 | 1014.1 |
| 20260504043047 | 4 | 0 | 0.0 | 0.0 | 0.00 | 0.00 | 0.00 | 72 | 1014.2 |
| 20260504042832 | 5 | 213 | 0.0 | 0.0 | 0.00 | 0.00 | 0.00 | 72 | 1013.9 |
| 20260504042058 | 5 | 213 | 0.0 | 0.0 | 0.00 | 0.00 | 0.00 | 72 | 1013.9 |
| 20260504041557 | 5 | 213 | 0.0 | 0.0 | 0.00 | 0.00 | 0.00 | 73 | 1013.8 |
| 20260504041537 | 5 | 0 | 0.0 | 0.0 | 0.00 | 0.00 | 0.00 | 72 | 1014.0 |
| 20260504041049 | 5 | 213 | 0.0 | 0.0 | 0.00 | 0.00 | 0.00 | 72 | 1013.8 |
| 20260504040545 | 5 | 213 | 0.0 | 0.0 | 0.00 | 0.00 | 0.00 | 71 | 1013.7 |
| 20260504040045 | 5 | 0 | 0.0 | 0.0 | 0.00 | 0.00 | 0.00 | 71 | 1013.9 |
| 20260504035537 | 5 | 213 | 0.0 | 0.0 | 0.00 | 0.00 | 0.00 | 71 | 1013.6 |
| 20260504035038 | 6 | 213 | 0.0 | 0.0 | 0.00 | 0.00 | 0.00 | 68 | 1013.6 |
| 20260504034551 | 6 | 0 | 0.0 | 3.2 | 0.00 | 0.00 | 0.00 | 66 | 1013.7 |
| 20260504034533 | 6 | 213 | 0.0 | 3.2 | 0.00 | 0.00 | 0.00 | 66 | 1013.5 |
| 20260504034023 | 7 | 213 | 0.0 | 3.2 | 0.00 | 0.00 | 0.00 | 63 | 1013.5 |
| 20260504033518 | 6 | 213 | 0.0 | 0.0 | 0.00 | 0.00 | 0.00 | 65 | 1013.6 |
| 20260504033236 | 6 | 213 | 0.0 | 0.0 | 0.00 | 0.00 | 0.00 | 65 | 1013.3 |
| 20260504033054 | 6 | 0 | 0.0 | 0.0 | 0.00 | 0.00 | 0.00 | 64 | 1013.5 |
| 20260504032504 | 7 | 213 | 0.0 | 0.0 | 0.00 | 0.00 | 0.00 | 64 | 1013.4 |
| 20260504031958 | 8 | 213 | 0.0 | 0.0 | 0.00 | 0.00 | 0.00 | 58 | 1013.4 |
| 20260504031540 | 8 | 0 | 0.0 | 0.0 | 0.00 | 0.00 | 0.00 | 57 | 1013.6 |
| 20260504031435 | 8 | 213 | 0.0 | 0.0 | 0.00 | 0.00 | 0.00 | 57 | 1013.4 |
| 20260504030934 | 8 | 213 | 0.0 | 0.0 | 0.00 | 0.00 | 0.00 | 55 | 1013.4 |
| 20260504030426 | 8 | 213 | 0.0 | 0.0 | 0.00 | 0.00 | 0.00 | 57 | 1013.4 |
| 20260504030038 | 8 | 0 | 0.0 | 0.0 | 0.00 | 0.00 | 0.00 | 56 | 1013.5 |
| 20260504025916 | 8 | 213 | 0.0 | 0.0 | 0.00 | 0.00 | 0.00 | 56 | 1013.3 |
| 20260504025411 | 8 | 213 | 0.0 | 0.0 | 0.00 | 0.00 | 0.00 | 56 | 1013.3 |
| 20260504024546 | 8 | 0 | 0.0 | 0.0 | 0.00 | 0.00 | 0.00 | 52 | 1013.6 |
| 20260504024401 | 9 | 213 | 0.0 | 0.0 | 0.00 | 0.00 | 0.00 | 53 | 1013.4 |
| 20260504024128 | 9 | 213 | 0.0 | 0.0 | 0.00 | 0.00 | 0.00 | 51 | 1013.3 |
| 20260504023341 | 9 | 213 | 0.0 | 1.6 | 0.00 | 0.00 | 0.00 | 51 | 1013.3 |
| 20260504023042 | 9 | 0 | 0.0 | 1.6 | 0.00 | 0.00 | 0.00 | 50 | 1013.6 |
| 20260504022835 | 10 | 213 | 0.0 | 1.6 | 0.00 | 0.00 | 0.00 | 50 | 1013.4 |
| 20260504022332 | 10 | 213 | 0.0 | 0.0 | 0.00 | 0.00 | 0.00 | 51 | 1013.5 |
| 20260504022047 | 10 | 213 | 0.0 | 0.0 | 0.00 | 0.00 | 0.00 | 49 | 1013.5 |
| 20260504021549 | 10 | 0 | 0.0 | 3.2 | 0.00 | 0.00 | 0.00 | 50 | 1013.6 |
| 20260504021324 | 10 | 213 | 0.0 | 1.6 | 0.00 | 0.00 | 0.00 | 48 | 1013.5 |
| 20260504020822 | 10 | 213 | 0.0 | 1.6 | 0.00 | 0.00 | 0.00 | 48 | 1013.4 |
| 20260504020307 | 10 | 213 | 0.0 | 4.8 | 0.00 | 0.00 | 0.00 | 47 | 1013.3 |
| 20260504020040 | 10 | 0 | 0.0 | 4.8 | 0.00 | 0.00 | 0.00 | 46 | 1013.5 |
| 20260504015801 | 10 | 213 | 0.0 | 4.8 | 0.00 | 0.00 | 0.00 | 47 | 1013.3 |
| 20260504015255 | 11 | 213 | 0.0 | 4.8 | 0.00 | 0.00 | 0.00 | 45 | 1013.3 |
| 20260504014750 | 11 | 213 | 1.6 | 4.8 | 0.00 | 0.00 | 0.00 | 45 | 1013.1 |
| 20260504014539 | 11 | 213 | 0.0 | 6.4 | 0.00 | 0.00 | 0.00 | 45 | 1013.4 |
| 20260504014238 | 11 | 213 | 1.6 | 6.4 | 0.00 | 0.00 | 0.00 | 44 | 1013.3 |
| 20260504013733 | 11 | 213 | 3.2 | 6.4 | 0.00 | 0.00 | 0.00 | 43 | 1013.0 |
| 20260504013228 | 11 | 213 | 3.2 | 6.4 | 0.00 | 0.00 | 0.00 | 44 | 1013.0 |
| 20260504013042 | 11 | 212 | 0.0 | 9.7 | 0.00 | 0.00 | 0.00 | 43 | 1013.3 |
| 20260504012722 | 11 | 212 | 1.6 | 9.7 | 0.00 | 0.00 | 0.00 | 43 | 1013.0 |
| 20260504012218 | 11 | 212 | 1.6 | 9.7 | 0.00 | 0.00 | 0.00 | 44 | 1013.0 |
| 20260504011713 | 11 | 239 | 3.2 | 6.4 | 0.00 | 0.00 | 0.00 | 45 | 1012.9 |
| 20260504011545 | 11 | 239 | 1.6 | 6.4 | 0.00 | 0.00 | 0.00 | 44 | 1013.3 |
| 20260504011209 | 11 | 239 | 3.2 | 6.4 | 0.00 | 0.00 | 0.00 | 44 | 1013.0 |
| 20260504010707 | 11 | 239 | 1.6 | 6.4 | 0.00 | 0.00 | 0.00 | 44 | 1013.0 |
| 20260504010159 | 11 | 239 | 1.6 | 6.4 | 0.00 | 0.00 | 0.00 | 44 | 1013.0 |
| 20260504010053 | 11 | 239 | 1.6 | 8.0 | 0.00 | 0.00 | 0.00 | 44 | 1013.2 |
| 20260504005653 | 11 | 214 | 0.0 | 3.2 | 0.00 | 0.00 | 0.00 | 43 | 1012.9 |
| 20260504005151 | 12 | 214 | 0.0 | 4.8 | 0.00 | 0.00 | 0.00 | 43 | 1012.8 |
| 20260504004645 | 12 | 214 | 1.6 | 6.4 | 0.00 | 0.00 | 0.00 | 42 | 1012.7 |
| 20260504004550 | 12 | 214 | 0.0 | 8.0 | 0.00 | 0.00 | 0.00 | 42 | 1013.0 |
| 20260504004140 | 12 | 213 | 1.6 | 6.4 | 0.00 | 0.00 | 0.00 | 42 | 1012.7 |
| 20260504003638 | 12 | 215 | 0.0 | 6.4 | 0.00 | 0.00 | 0.00 | 41 | 1012.7 |
| 20260504003129 | 12 | 215 | 1.6 | 6.4 | 0.00 | 0.00 | 0.00 | 40 | 1012.5 |
| 20260504003039 | 12 | 0 | 0.0 | 6.4 | 0.00 | 0.00 | 0.00 | 40 | 1012.7 |
| 20260504002624 | 13 | 215 | 1.6 | 6.4 | 0.00 | 0.00 | 0.00 | 40 | 1012.4 |
| 20260504002120 | 13 | 215 | 1.6 | 6.4 | 0.00 | 0.00 | 0.00 | 39 | 1012.4 |
| 20260504001619 | 13 | 215 | 1.6 | 6.4 | 0.00 | 0.00 | 0.00 | 39 | 1012.1 |
| 20260504001605 | 12 | 214 | 0.0 | 8.0 | 0.00 | 0.00 | 0.00 | 38 | 1012.6 |
| 20260504001109 | 13 | 215 | 1.6 | 8.0 | 0.00 | 0.00 | 0.00 | 39 | 1012.2 |
| 20260504000605 | 13 | 215 | 0.0 | 8.0 | 0.00 | 0.00 | 0.00 | 38 | 1012.0 |
| 20260504000053 | 13 | 215 | 1.6 | 6.4 | 0.00 | 0.00 | 0.00 | 38 | 1012.1 |
| 20260504000048 | 13 | 214 | 0.0 | 6.4 | 0.00 | 0.00 | 0.00 | 38 | 1012.3 |
| 20260503235820 | 13 | 215 | 1.6 | 9.7 | 0.00 | 0.00 | 0.00 | 38 | 1012.0 |
| 20260503235256 | 14 | 215 | 3.2 | 9.7 | 0.00 | 0.00 | 0.00 | 37 | 1012.0 |
| 20260503234753 | 14 | 207 | 3.2 | 8.0 | 0.00 | 0.00 | 0.00 | 36 | 1011.9 |
| 20260503234543 | 13 | 207 | 1.6 | 8.0 | 0.00 | 0.00 | 0.00 | 36 | 1012.2 |
| 20260503234258 | 14 | 236 | 3.2 | 12.9 | 0.00 | 0.00 | 0.00 | 37 | 1012.0 |
| 20260503233529 | 14 | 283 | 3.2 | 12.9 | 0.00 | 0.00 | 0.00 | 36 | 1011.8 |
| 20260503233039 | 14 | 263 | 3.2 | 16.1 | 0.00 | 0.00 | 0.00 | 35 | 1012.1 |
| 20260503233022 | 14 | 304 | 3.2 | 14.5 | 0.00 | 0.00 | 0.00 | 36 | 1011.8 |
| 20260503232517 | 14 | 216 | 6.4 | 12.9 | 0.00 | 0.00 | 0.00 | 36 | 1011.9 |
| 20260503232016 | 15 | 273 | 6.4 | 12.9 | 0.00 | 0.00 | 0.00 | 35 | 1011.7 |
| 20260503231542 | 15 | 287 | 3.2 | 16.1 | 0.00 | 0.00 | 0.00 | 34 | 1012.0 |
| 20260503231515 | 15 | 290 | 4.8 | 16.1 | 0.00 | 0.00 | 0.00 | 35 | 1011.8 |
| 20260503231008 | 15 | 280 | 4.8 | 16.1 | 0.00 | 0.00 | 0.00 | 34 | 1011.7 |
| 20260503230503 | 15 | 222 | 3.2 | 22.5 | 0.00 | 0.00 | 0.00 | 34 | 1011.7 |
| 20260503230040 | 15 | 234 | 4.8 | 25.7 | 0.00 | 0.00 | 0.00 | 34 | 1011.9 |
| 20260503225958 | 15 | 234 | 6.4 | 25.7 | 0.00 | 0.00 | 0.00 | 35 | 1011.6 |
| 20260503225457 | 15 | 300 | 9.7 | 20.9 | 0.00 | 0.00 | 0.00 | 34 | 1011.5 |
| 20260503224949 | 15 | 261 | 11.3 | 20.9 | 0.00 | 0.00 | 0.00 | 33 | 1011.5 |
| 20260503224538 | 15 | 295 | 6.4 | 17.7 | 0.00 | 0.00 | 0.00 | 33 | 1011.8 |
| 20260503224445 | 15 | 178 | 6.4 | 17.7 | 0.00 | 0.00 | 0.00 | 34 | 1011.6 |
| 20260503224159 | 15 | 235 | 3.2 | 14.5 | 0.00 | 0.00 | 0.00 | 34 | 1011.6 |
| 20260503223442 | 15 | 251 | 6.4 | 14.5 | 0.00 | 0.00 | 0.00 | 34 | 1011.7 |
| 20260503223044 | 15 | 189 | 3.2 | 16.1 | 0.00 | 0.00 | 0.00 | 34 | 1012.0 |
| 20260503222937 | 15 | 200 | 3.2 | 16.1 | 0.00 | 0.00 | 0.00 | 34 | 1011.7 |
| 20260503222434 | 15 | 277 | 6.4 | 16.1 | 0.00 | 0.00 | 0.00 | 33 | 1011.7 |
| 20260503221929 | 15 | 241 | 6.4 | 16.1 | 0.00 | 0.00 | 0.00 | 34 | 1011.6 |
| 20260503221547 | 15 | 304 | 6.4 | 19.3 | 0.00 | 0.00 | 0.00 | 33 | 1011.8 |
| 20260503221426 | 15 | 202 | 6.4 | 14.5 | 0.00 | 0.00 | 0.00 | 35 | 1011.6 |
| 20260503220926 | 15 | 242 | 6.4 | 16.1 | 0.00 | 0.00 | 0.00 | 33 | 1011.6 |
| 20260503220423 | 16 | 294 | 9.7 | 16.1 | 0.00 | 0.00 | 0.00 | 34 | 1011.7 |
| 20260503215918 | 16 | 290 | 8.0 | 19.3 | 0.00 | 0.00 | 0.00 | 32 | 1011.6 |
| 20260503215415 | 16 | 234 | 9.7 | 19.3 | 0.00 | 0.00 | 0.00 | 33 | 1011.6 |
| 20260503214911 | 16 | 282 | 12.9 | 19.3 | 0.00 | 0.00 | 0.00 | 32 | 1011.6 |
| 20260503214537 | 15 | 300 | 8.0 | 24.1 | 0.00 | 0.00 | 0.00 | 32 | 1011.8 |
| 20260503214407 | 16 | 233 | 11.3 | 24.1 | 0.00 | 0.00 | 0.00 | 31 | 1011.6 |
| 20260503213901 | 15 | 270 | 9.7 | 24.1 | 0.00 | 0.00 | 0.00 | 32 | 1011.6 |
| 20260503213358 | 15 | 313 | 11.3 | 24.1 | 0.00 | 0.00 | 0.00 | 33 | 1011.7 |
| 20260503213040 | 15 | 286 | 8.0 | 24.1 | 0.00 | 0.00 | 0.00 | 31 | 1011.8 |
| 20260503212853 | 16 | 288 | 9.7 | 24.1 | 0.00 | 0.00 | 0.00 | 32 | 1011.5 |
| 20260503212347 | 16 | 261 | 9.7 | 25.7 | 0.00 | 0.00 | 0.00 | 31 | 1011.6 |
| 20260503211840 | 16 | 263 | 9.7 | 25.7 | 0.00 | 0.00 | 0.00 | 33 | 1011.5 |
| 20260503211559 | 16 | 263 | 8.0 | 25.7 | 0.00 | 0.00 | 0.00 | 30 | 1011.7 |
| 20260503211335 | 16 | 289 | 8.0 | 24.1 | 0.00 | 0.00 | 0.00 | 33 | 1011.4 |
| 20260503211051 | 16 | 290 | 8.0 | 24.1 | 0.00 | 0.00 | 0.00 | 31 | 1011.5 |
| 20260503210330 | 16 | 281 | 11.3 | 24.1 | 0.00 | 0.00 | 0.00 | 31 | 1011.5 |
| 20260503210041 | 16 | 290 | 12.9 | 25.7 | 0.00 | 0.00 | 0.00 | 31 | 1011.7 |
| 20260503205827 | 16 | 294 | 12.9 | 24.1 | 0.00 | 0.00 | 0.00 | 32 | 1011.4 |
| 20260503205322 | 16 | 285 | 6.4 | 22.5 | 0.00 | 0.00 | 0.00 | 32 | 1011.7 |
| 20260503204819 | 16 | 291 | 12.9 | 25.7 | 0.00 | 0.00 | 0.00 | 32 | 1011.6 |
| 20260503204539 | 15 | 267 | 14.5 | 25.7 | 0.00 | 0.00 | 0.00 | 31 | 1012.1 |
| 20260503204314 | 16 | 303 | 17.7 | 25.7 | 0.00 | 0.00 | 0.00 | 31 | 1011.8 |
| 20260503203810 | 16 | 280 | 12.9 | 24.1 | 0.00 | 0.00 | 0.00 | 32 | 1011.7 |
| 20260503203305 | 16 | 207 | 9.7 | 29.0 | 0.00 | 0.00 | 0.00 | 33 | 1011.7 |
| 20260503203037 | 15 | 289 | 11.3 | 29.0 | 0.00 | 0.00 | 0.00 | 33 | 1012.0 |
| 20260503202800 | 16 | 327 | 17.7 | 29.0 | 0.00 | 0.00 | 0.00 | 31 | 1011.9 |
| 20260503202521 | 16 | 246 | 16.1 | 29.0 | 0.00 | 0.00 | 0.00 | 30 | 1011.9 |
| 20260503201755 | 16 | 263 | 11.3 | 20.9 | 0.00 | 0.00 | 0.00 | 34 | 1011.9 |
| 20260503201537 | 15 | 271 | 11.3 | 22.5 | 0.00 | 0.00 | 0.00 | 32 | 1012.1 |
| 20260503201521 | 16 | 258 | 9.7 | 20.9 | 0.00 | 0.00 | 0.00 | 36 | 1011.8 |
| 20260503200748 | 16 | 319 | 11.3 | 20.9 | 0.00 | 0.00 | 0.00 | 32 | 1011.9 |
| 20260503200248 | 16 | 300 | 12.9 | 19.3 | 0.00 | 0.00 | 0.00 | 34 | 1012.0 |
| 20260503200044 | 15 | 308 | 9.7 | 22.5 | 0.00 | 0.00 | 0.00 | 35 | 1012.2 |
| 20260503195739 | 16 | 313 | 8.0 | 19.3 | 0.00 | 0.00 | 0.00 | 34 | 1012.1 |
| 20260503195232 | 15 | 297 | 8.0 | 24.1 | 0.00 | 0.00 | 0.00 | 35 | 1012.2 |
| 20260503194727 | 16 | 329 | 11.3 | 29.0 | 0.00 | 0.00 | 0.00 | 35 | 1012.1 |
| 20260503194539 | 15 | 259 | 8.0 | 29.0 | 0.00 | 0.00 | 0.00 | 36 | 1012.4 |
| 20260503194223 | 15 | 300 | 11.3 | 29.0 | 0.00 | 0.00 | 0.00 | 35 | 1012.2 |
| 20260503193938 | 15 | 296 | 12.9 | 29.0 | 0.00 | 0.00 | 0.00 | 34 | 1012.4 |
| 20260503193213 | 15 | 241 | 16.1 | 29.0 | 0.00 | 0.00 | 0.00 | 33 | 1012.4 |
| 20260503193048 | 15 | 303 | 14.5 | 33.8 | 0.00 | 0.00 | 0.00 | 34 | 1012.5 |
| 20260503192712 | 15 | 267 | 11.3 | 29.0 | 0.00 | 0.00 | 0.00 | 34 | 1012.4 |
| 20260503192204 | 15 | 221 | 12.9 | 25.7 | 0.00 | 0.00 | 0.00 | 34 | 1012.4 |
| 20260503191918 | 15 | 276 | 12.9 | 25.7 | 0.00 | 0.00 | 0.00 | 32 | 1012.4 |
| 20260503191538 | 15 | 307 | 12.9 | 22.5 | 0.00 | 0.00 | 0.00 | 35 | 1012.8 |
| 20260503191153 | 15 | 333 | 12.9 | 20.9 | 0.00 | 0.00 | 0.00 | 36 | 1012.4 |
| 20260503190909 | 15 | 255 | 9.7 | 19.3 | 0.00 | 0.00 | 0.00 | 37 | 1012.5 |
| 20260503190144 | 15 | 301 | 11.3 | 25.7 | 0.00 | 0.00 | 0.00 | 36 | 1012.6 |
| 20260503190040 | 14 | 289 | 9.7 | 25.7 | 0.00 | 0.00 | 0.00 | 34 | 1013.0 |
| 20260503185640 | 14 | 309 | 11.3 | 25.7 | 0.00 | 0.00 | 0.00 | 36 | 1012.8 |
| 20260503185137 | 14 | 288 | 8.0 | 22.5 | 0.00 | 0.00 | 0.00 | 37 | 1012.8 |
| 20260503184634 | 14 | 276 | 14.5 | 22.5 | 0.00 | 0.00 | 0.00 | 35 | 1012.8 |
| 20260503184545 | 14 | 273 | 16.1 | 25.7 | 0.00 | 0.00 | 0.00 | 34 | 1013.1 |
| 20260503184130 | 15 | 318 | 16.1 | 25.7 | 0.00 | 0.00 | 0.00 | 35 | 1012.9 |
| 20260503183625 | 14 | 277 | 11.3 | 25.7 | 0.00 | 0.00 | 0.00 | 38 | 1012.8 |
| 20260503183125 | 14 | 298 | 11.3 | 29.0 | 0.00 | 0.00 | 0.00 | 34 | 1013.0 |
| 20260503183042 | 13 | 273 | 11.3 | 29.0 | 0.00 | 0.00 | 0.00 | 35 | 1013.2 |
| 20260503182835 | 14 | 259 | 17.7 | 29.0 | 0.00 | 0.00 | 0.00 | 35 | 1013.0 |
| 20260503182111 | 13 | 232 | 12.9 | 35.4 | 0.00 | 0.00 | 0.00 | 34 | 1013.0 |
| 20260503181612 | 13 | 299 | 17.7 | 35.4 | 0.00 | 0.00 | 0.00 | 35 | 1013.4 |
| 20260503181605 | 13 | 308 | 16.1 | 35.4 | 0.00 | 0.00 | 0.00 | 36 | 1013.3 |
| 20260503181103 | 14 | 326 | 16.1 | 32.2 | 0.00 | 0.00 | 0.00 | 34 | 1012.9 |
| 20260503180103 | 14 | 302 | 11.3 | 27.4 | 0.00 | 0.00 | 0.00 | 38 | 1013.0 |
| 20260503180041 | 13 | 308 | 9.7 | 29.0 | 0.00 | 0.00 | 0.00 | 35 | 1013.4 |
| 20260503175554 | 13 | 269 | 17.7 | 27.4 | 0.00 | 0.00 | 0.00 | 34 | 1013.1 |
| 20260503175312 | 14 | 291 | 6.4 | 27.4 | 0.00 | 0.00 | 0.00 | 38 | 1013.1 |
| 20260503174812 | 14 | 296 | 9.7 | 27.4 | 0.00 | 0.00 | 0.00 | 38 | 1012.9 |
| 20260503174551 | 13 | 282 | 11.3 | 33.8 | 0.00 | 0.00 | 0.00 | 38 | 1013.3 |
| 20260503174043 | 14 | 298 | 9.7 | 27.4 | 0.00 | 0.00 | 0.00 | 40 | 1013.1 |
| 20260503173538 | 13 | 281 | 14.5 | 27.4 | 0.00 | 0.00 | 0.00 | 37 | 1013.3 |
| 20260503173052 | 13 | 225 | 17.7 | 33.8 | 0.00 | 0.00 | 0.00 | 38 | 1013.5 |
| 20260503173033 | 13 | 225 | 19.3 | 27.4 | 0.00 | 0.00 | 0.00 | 38 | 1013.3 |
| 20260503172529 | 13 | 281 | 9.7 | 25.7 | 0.00 | 0.00 | 0.00 | 38 | 1013.3 |
| 20260503172026 | 13 | 289 | 11.3 | 25.7 | 0.00 | 0.00 | 0.00 | 39 | 1013.5 |
| 20260503171538 | 12 | 275 | 12.9 | 29.0 | 0.00 | 0.00 | 0.00 | 36 | 1013.8 |
| 20260503171521 | 13 | 284 | 14.5 | 27.4 | 0.00 | 0.00 | 0.00 | 37 | 1013.6 |
| 20260503171016 | 13 | 272 | 17.7 | 27.4 | 0.00 | 0.00 | 0.00 | 37 | 1013.6 |
| 20260503170512 | 13 | 292 | 20.9 | 27.4 | 0.00 | 0.00 | 0.00 | 39 | 1013.5 |